STARLINK-32076, 60350

Orbit data source: Space-Track

STARLINK-32076, 60350 is a payload satellite owned by SpaceX/Seattle (US) in LEO that was launched on Fri, 02 Aug 2024 UTC via an FALCON 9 launch vehicle from the Air Force Eastern Test Range (AFETR). Payload-class satellites include a variety of spacecraft equipped with specific instruments for various scientific and technological missions. These include communications satellites like Starlink; space stations such as the ISS; scientific satellites like the Hubble; Earth observation satellites from companies like Planet Labs, Umbra, and HawkEye 360; GPS; miniature CubeSats for education and research; and military/defense satellites.

Loading next visibility...
Identifier
60350, 2024-136X
Orbit
LEO
Country
Flag of USUS
Related business
Manufacturer
SpaceX/Seattle
Mission
Operational Commercial Communications
Bus & Motor
STARLINK V2M, Unknown motor
Mass
730 kg wet, ~700 kg dry
Launch date (UTC)
2024-08-02 (2 years ago)
Launch vehicle
FALCON 9
Launch site
Air Force Eastern Test Range (AFETR)
Object type
Payload
Rocket body
Debris
Shape & HBR
Box + 2 Pan, 17.7 m
Radar Cross Section
33.884 m², Large (>1 m²)

Expand to show TLE details & history
Last TLE update: 12 hours ago

TLE from 12 hours ago
0 STARLINK-32076
1 60350U 24136X   26034.95453625  .00000531  00000-0  30059-4 0  9994
2 60350  53.1605 232.0661 0001215  78.2063 281.9074 15.30199223 84504
Epoch: 2026-02-03T22:54Z
TLE epoch observation values (Epoch: 2026-02-03T22:54:31.931Z)
Latitude
-0.00005°
Longitude
114.30496°
Altitude
475.945 km
Speed
7.629 km/s
True Right ascension
15h 28m 15s
True Declination
0° 00' 00"
Sunlit
Object was in daylight at epoch
Visualization orbit readout
Latitude
Unknown
Longitude
Unknown
Altitude
Unknown
Speed
Unknown
Apparent Right ascension
Unknown
Apparent Declination
Unknown
Sunlit
N/A
Visualization observer readout
Local Sidereal Time
13:21:56
Azimuth
Unknown
Elevation
Unknown
Doppler factor
Unknown
Orbital elements
Apogee altitude
476.306 km
Perigee altitude
474.641 km
Semi-major axis
6,853.611 km
Eccentricity
0.00012
Inclination
53.1605°
RAAN
232.0661°
Arg. of periapsis
78.2063°
True anomaly
281.89378°
Mean anomaly
281.9074°
Eccentric anomaly
281.90059°
Mean motion
3.82529 °/min
Orbital period
94.11 mins
BSTAR
0.000030059
Loading maneuver chart data...
Computing Atmospheric mass density...
Loading historical data...
Loading historical data...
Loading historical data...
Loading historical data...
Loading historical data...
Loading historical data...
Loading historical data...

Documentation

Showing up to 5 results
|